Location: Croisilles
(50.1998°N, 2.8793°E)
Time: 12:28:39
(UTC+00:00)

AQUARIUS - Pass Details

Date: 21 January 2021
Orbit: 650 x 652 km, 98.0° (Epoch: 27 February)

Event Time Altitude Azimuth Distance (km) Brightness Sun altitude
Rises 17:09:53 0° 165° (SSE) 2,962 7.6 -7.4°
Reaches altitude 10° 17:12:05 10° 166° (SSE) 2,056 6.8 -7.7°
Maximum altitude 17:16:35 86° 256° (WSW) 662 4.3 -8.4°
Drops below altitude 10° 17:21:07 10° 345° (NNW) 2,072 6.7 -9.1°
Sets 17:23:20 0° 346° (NNW) 2,988 7.5 -9.4°
